Regional Weather Roundup
Issued by NWS

Home | Current Version | Previous Version | Text Only | Print | Product List | Glossary On
Versions: 1 2 3 4 5 6 7 8 9 10 11 12 13 14 15 16 17 18 19 20 21 22 23 24 25 26 27 28 29 30 31 32 33 34 35 36 37 38 39 40 41 42 43 44 45 46 47 48 49 50
000
ASUS44 KLIX 250110
RWRLA
LOUISIANA WEATHER ROUNDUP
NATIONAL WEATHER SERVICE NEW ORLEANS LA
700 PM CST WED DEC 24 2014

NOTE: "FAIR" INDICATES FEW OR NO CLOUDS BELOW 12,000 FEET WITH NO
      SIGNIFICANT WEATHER AND/OR OBSTRUCTIONS TO VISIBILITY.
      SKY/WX - SKY CONDITION AND SIGNIFICANT WEATHER.
      TMP - AIR TEMPERATURE.    DP   - DEWPOINT TEMPERATURE.
      RH  - RELATIVE HUMIDITY.  PRES - PRESSURE.
      HX  - HEAT INDEX.         WCI  - WIND CHILL INDEX.

*  THESE STATIONS ARE NOT NWS OR FAA STATIONS AND ARE NOT UNDER
   NWS QUALITY CONTROL.

LAZ040-048-061>063-065-066-069-250200-
SOUTHEAST LOUISIANA

CITY           SKY/WX    TMP DP  RH WIND       PRES   REMARKS
N.O. AUDUBON     N/A     49  36  58 MISG        N/A
N.O. INTL ARPT MOCLDY    49  33  54 NW16      30.06R
N.O. LAKEFRONT MOCLDY    51  37  58 NW25G31   30.06R
N.O. DOWNTOWN* MOCLDY    50  30  46 W8G20     30.06R
SLIDELL        CLOUDY    49  33  54 VRB5      30.05R
BATON ROUGE    MOCLDY    47  34  60 W13       30.06R
BOOTHVILLE     CLOUDY    52  40  63 NW9       30.05R
BELLE CHASSE   MOCLDY    49  32  52 NW9       30.04R
BOGALUSA*        N/A     48  35  60 W6        30.05R
GALLIANO*      PTCLDY    50  36  58 MISG      30.06R
NEW ROADS*     CLOUDY    47  36  65 W12       30.06R
GONZALES*      CLOUDY    49  33  54 NW7       30.06R
HAMMOND*       NOT AVBL
HOUMA*         CLOUDY    49  35  59 NW6       30.06R HAZE
PORT FOURCHON* PTCLDY    50  37  62 NW14G23   30.09R

$$

LAZ041-044-053-054-250200-
SOUTHWEST LOUISIANA

CITY           SKY/WX    TMP DP  RH WIND       PRES   REMARKS
LAKE CHARLES   CLEAR     43  37  79 CALM      30.09R
LAFAYETTE      CLOUDY    47  36  65 W8        30.08R
PATTERSON      MOCLDY    48  32  53 NW9G17    30.09R
SALT POINT       N/A     61  35  37 NW7       30.07R
NEW IBERIA     MOCLDY    46  37  71 W7        30.09R
CHENAULT AIRPK CLEAR     45  36  70 NW3       30.09R

$$

LAZ027-028-250200-
CENTRAL LOUISIANA

CITY           SKY/WX    TMP DP  RH WIND       PRES   REMARKS
FORT POLK      CLEAR     39  37  92 SW1       30.07R
ALEXANDRIA INT CLOUDY    45  36  70 NW6       30.05R
ALEXANDRIA     CLEAR     40  36  86 CALM      30.06R

$$

LAZ001-002-250200-
NORTHWEST LOUISIANA

CITY           SKY/WX    TMP DP  RH WIND       PRES   REMARKS
SHREVEPORT     PTCLDY    38  33  82 CALM      30.04R
BARKSDALE AFB  CLEAR     42  31  65 W2        30.05R
DTN SHREVEPORT CLEAR     39  31  72 CALM      30.05R

$$

LAZ014-016-250200-
NORTHEAST LOUISIANA

CITY           SKY/WX    TMP DP  RH WIND       PRES   REMARKS
MONROE         CLOUDY    44  37  76 W9        30.05R
TALLULAH       MOCLDY    45  35  68 W8        30.03R

$$



USA.gov is the U.S. government's official web portal to all federal, state and local government web resources and services.